| time (UTC) | temp F | wind direction | speed MPH | gust MPH | rain 1hr in | rain 24hr in | rain mn in | humidity % | barometer mb |
| 20260502180515 | 58 | 355 | 0.0 | 8.0 | 0.00 | 0.00 | 0.00 | 44 | 1013.8 |
| 20260502170507 | 56 | 92 | 2.0 | 6.0 | 0.00 | 0.00 | 0.00 | 44 | 1014.8 |
| 20260502164003 | 55 | 90 | 1.0 | 4.0 | 0.00 | 0.00 | 0.00 | 51 | 1015.1 |
| 20260502163502 | 54 | 79 | 1.0 | 4.0 | 0.00 | 0.00 | 0.00 | 48 | 1015.3 |
| 20260502163002 | 54 | 32 | 0.0 | 4.0 | 0.00 | 0.00 | 0.00 | 53 | 1015.4 |
| 20260502162502 | 54 | 142 | 2.0 | 4.0 | 0.00 | 0.00 | 0.00 | 49 | 1015.5 |
| 20260502162100 | 54 | 90 | 1.0 | 3.0 | 0.00 | 0.00 | 0.00 | 50 | 1015.6 |
| 20260502161606 | 54 | 59 | 0.0 | 3.0 | 0.00 | 0.00 | 0.00 | 52 | 1015.7 |
| 20260502161058 | 53 | 75 | 0.0 | 3.0 | 0.00 | 0.00 | 0.00 | 53 | 1015.7 |
| 20260502160601 | 53 | 90 | 1.0 | 3.0 | 0.00 | 0.00 | 0.00 | 55 | 1015.7 |
| 20260502160106 | 53 | 217 | 0.0 | 3.0 | 0.00 | 0.00 | 0.00 | 55 | 1015.9 |
| 20260502152055 | 53 | 67 | 0.0 | 3.0 | 0.00 | 0.00 | 0.00 | 58 | 1015.7 |
| 20260502151609 | 53 | 34 | 0.0 | 3.0 | 0.00 | 0.00 | 0.00 | 54 | 1015.7 |
| 20260502151053 | 53 | 55 | 0.0 | 3.0 | 0.00 | 0.00 | 0.00 | 60 | 1015.8 |
| 20260502150553 | 53 | 199 | 0.0 | 3.0 | 0.00 | 0.00 | 0.00 | 60 | 1015.7 |
| 20260502150125 | 52 | 265 | 0.0 | 3.0 | 0.00 | 0.00 | 0.00 | 59 | 1015.5 |
| 20260502130543 | 53 | 104 | 0.0 | 2.0 | 0.00 | 0.00 | 0.00 | 71 | 1014.9 |
| 20260502123540 | 53 | 86 | 0.0 | 0.0 | 0.00 | 0.00 | 0.00 | 73 | 1015.0 |
| 20260502123040 | 53 | 87 | 0.0 | 2.0 | 0.00 | 0.00 | 0.00 | 73 | 1014.9 |
| 20260502122539 | 52 | 80 | 0.0 | 2.0 | 0.00 | 0.00 | 0.00 | 72 | 1014.6 |
| 20260502122039 | 52 | 99 | 0.0 | 2.0 | 0.00 | 0.00 | 0.00 | 74 | 1014.6 |
| 20260502121539 | 52 | 48 | 0.0 | 1.0 | 0.00 | 0.00 | 0.00 | 74 | 1014.8 |
| 20260502121042 | 52 | 5 | 0.0 | 0.0 | 0.00 | 0.00 | 0.00 | 72 | 1014.8 |
| 20260502120537 | 52 | 5 | 0.0 | 2.0 | 0.00 | 0.00 | 0.00 | 71 | 1014.6 |
| 20260502115536 | 52 | 303 | 0.0 | 0.0 | 0.00 | 0.00 | 0.00 | 73 | 1014.3 |
| 20260502115037 | 52 | 303 | 0.0 | 0.0 | 0.00 | 0.00 | 0.00 | 72 | 1014.3 |
| 20260502114538 | 52 | 71 | 0.0 | 0.0 | 0.00 | 0.00 | 0.00 | 73 | 1014.3 |
| 20260502114035 | 52 | 71 | 0.0 | 0.0 | 0.00 | 0.00 | 0.00 | 73 | 1014.5 |
| 20260502113534 | 52 | 69 | 0.0 | 0.0 | 0.00 | 0.00 | 0.00 | 72 | 1014.4 |
| 20260502113038 | 52 | 69 | 0.0 | 0.0 | 0.00 | 0.00 | 0.00 | 75 | 1014.6 |
| 20260502112533 | 52 | 69 | 0.0 | 0.0 | 0.00 | 0.00 | 0.00 | 75 | 1014.6 |
| 20260502112036 | 52 | 69 | 0.0 | 1.0 | 0.00 | 0.00 | 0.00 | 74 | 1014.5 |
| 20260502111534 | 52 | 78 | 0.0 | 1.0 | 0.00 | 0.00 | 0.00 | 76 | 1014.4 |
| 20260502111034 | 52 | 90 | 0.0 | 0.0 | 0.00 | 0.00 | 0.00 | 76 | 1014.3 |
| 20260502110534 | 52 | 98 | 0.0 | 0.0 | 0.00 | 0.00 | 0.00 | 78 | 1014.2 |
| 20260502110035 | 51 | 101 | 0.0 | 0.0 | 0.00 | 0.00 | 0.00 | 81 | 1014.2 |
| 20260502105531 | 51 | 174 | 0.0 | 0.0 | 0.00 | 0.00 | 0.00 | 80 | 1014.2 |
| 20260502105033 | 51 | 284 | 0.0 | 0.0 | 0.00 | 0.00 | 0.00 | 82 | 1014.2 |
| 20260502104530 | 51 | 63 | 0.0 | 0.0 | 0.00 | 0.00 | 0.00 | 81 | 1014.4 |
| 20260502104031 | 51 | 65 | 0.0 | 0.0 | 0.00 | 0.00 | 0.00 | 80 | 1014.2 |
| 20260502103532 | 51 | 82 | 0.0 | 0.0 | 0.00 | 0.00 | 0.00 | 81 | 1013.7 |
| 20260502103056 | 51 | 82 | 0.0 | 0.0 | 0.00 | 0.00 | 0.00 | 81 | 1013.8 |
| 20260502102530 | 51 | 84 | 0.0 | 0.0 | 0.00 | 0.00 | 0.00 | 81 | 1013.9 |
| 20260502102030 | 51 | 92 | 0.0 | 0.0 | 0.00 | 0.00 | 0.00 | 80 | 1013.8 |
| 20260502101545 | 51 | 98 | 0.0 | 0.0 | 0.00 | 0.00 | 0.00 | 81 | 1013.9 |
| 20260502101029 | 52 | 98 | 0.0 | 0.0 | 0.00 | 0.00 | 0.00 | 81 | 1013.8 |
| 20260502100531 | 51 | 98 | 0.0 | 0.0 | 0.00 | 0.00 | 0.00 | 81 | 1013.7 |
| 20260502091526 | 52 | 102 | 0.0 | 0.0 | 0.00 | 0.00 | 0.00 | 83 | 1014.1 |
| 20260502091025 | 52 | 102 | 0.0 | 0.0 | 0.00 | 0.00 | 0.00 | 84 | 1014.4 |
| 20260502090526 | 52 | 102 | 0.0 | 0.0 | 0.00 | 0.00 | 0.00 | 84 | 1014.5 |
| 20260502071521 | 52 | 207 | 0.0 | 0.0 | 0.00 | 0.00 | 0.00 | 88 | 1013.4 |
| 20260502071020 | 52 | 207 | 0.0 | 0.0 | 0.00 | 0.00 | 0.00 | 88 | 1013.4 |
| 20260502070519 | 52 | 207 | 0.0 | 0.0 | 0.00 | 0.00 | 0.00 | 88 | 1013.3 |
| 20260502070019 | 52 | 207 | 0.0 | 0.0 | 0.00 | 0.00 | 0.00 | 88 | 1013.2 |
| 20260502065518 | 52 | 207 | 0.0 | 0.0 | 0.00 | 0.00 | 0.00 | 88 | 1013.2 |
| 20260502065022 | 52 | 207 | 0.0 | 0.0 | 0.00 | 0.00 | 0.00 | 88 | 1013.1 |
| 20260502064517 | 52 | 207 | 0.0 | 0.0 | 0.00 | 0.00 | 0.00 | 88 | 1013.3 |
| 20260502064017 | 52 | 207 | 0.0 | 0.0 | 0.00 | 0.00 | 0.00 | 88 | 1013.3 |
| 20260502063516 | 52 | 207 | 0.0 | 0.0 | 0.00 | 0.00 | 0.00 | 88 | 1013.5 |
| 20260502063017 | 52 | 207 | 0.0 | 0.0 | 0.00 | 0.00 | 0.00 | 88 | 1013.4 |
| 20260502062516 | 52 | 207 | 0.0 | 0.0 | 0.00 | 0.00 | 0.00 | 88 | 1013.4 |
| 20260502062016 | 52 | 207 | 0.0 | 0.0 | 0.00 | 0.00 | 0.00 | 88 | 1013.5 |
| 20260502061515 | 52 | 207 | 0.0 | 0.0 | 0.00 | 0.00 | 0.00 | 88 | 1013.6 |
| 20260502061017 | 52 | 207 | 0.0 | 0.0 | 0.00 | 0.00 | 0.00 | 87 | 1013.6 |
| 20260502060513 | 52 | 207 | 0.0 | 0.0 | 0.00 | 0.00 | 0.00 | 87 | 1013.7 |
| 20260502060013 | 52 | 207 | 0.0 | 0.0 | 0.00 | 0.00 | 0.00 | 87 | 1013.7 |
| 20260502055513 | 52 | 207 | 0.0 | 0.0 | 0.00 | 0.00 | 0.00 | 86 | 1013.7 |
| 20260502055014 | 52 | 207 | 0.0 | 0.0 | 0.00 | 0.00 | 0.00 | 86 | 1013.7 |
| 20260502054513 | 52 | 207 | 0.0 | 0.0 | 0.00 | 0.00 | 0.00 | 86 | 1013.9 |
| 20260502054011 | 52 | 207 | 0.0 | 0.0 | 0.00 | 0.00 | 0.00 | 86 | 1013.9 |
| 20260502053512 | 52 | 207 | 0.0 | 0.0 | 0.00 | 0.00 | 0.00 | 86 | 1014.0 |
| 20260502053011 | 52 | 207 | 0.0 | 0.0 | 0.00 | 0.00 | 0.00 | 86 | 1014.0 |
| 20260502052511 | 52 | 207 | 0.0 | 0.0 | 0.00 | 0.00 | 0.00 | 86 | 1014.0 |
| 20260502052012 | 52 | 207 | 0.0 | 0.0 | 0.00 | 0.00 | 0.00 | 86 | 1014.0 |
| 20260502051515 | 52 | 207 | 0.0 | 0.0 | 0.00 | 0.00 | 0.00 | 86 | 1014.0 |
| 20260502051010 | 52 | 207 | 0.0 | 0.0 | 0.00 | 0.00 | 0.00 | 86 | 1013.9 |
| 20260502050511 | 52 | 207 | 0.0 | 0.0 | 0.00 | 0.00 | 0.00 | 86 | 1014.0 |
| 20260502050011 | 52 | 207 | 0.0 | 0.0 | 0.00 | 0.00 | 0.00 | 86 | 1013.8 |
| 20260502045509 | 52 | 207 | 0.0 | 0.0 | 0.00 | 0.00 | 0.00 | 86 | 1013.7 |
| 20260502045009 | 52 | 207 | 0.0 | 0.0 | 0.00 | 0.00 | 0.00 | 86 | 1013.9 |
| 20260502044508 | 52 | 207 | 0.0 | 0.0 | 0.00 | 0.00 | 0.00 | 85 | 1013.8 |
| 20260502044008 | 52 | 207 | 0.0 | 0.0 | 0.00 | 0.00 | 0.00 | 85 | 1013.9 |
| 20260502043511 | 52 | 207 | 0.0 | 0.0 | 0.00 | 0.00 | 0.00 | 85 | 1013.9 |
| 20260502043008 | 52 | 207 | 0.0 | 0.0 | 0.00 | 0.00 | 0.00 | 85 | 1013.8 |
| 20260502042508 | 52 | 207 | 0.0 | 0.0 | 0.00 | 0.00 | 0.00 | 85 | 1013.7 |
| 20260502042007 | 52 | 207 | 0.0 | 0.0 | 0.00 | 0.00 | 0.00 | 85 | 1013.9 |
| 20260502041507 | 52 | 207 | 0.0 | 0.0 | 0.00 | 0.00 | 0.00 | 84 | 1014.0 |
| 20260502041006 | 53 | 207 | 0.0 | 0.0 | 0.00 | 0.00 | 0.00 | 84 | 1014.0 |
| 20260502040505 | 53 | 207 | 0.0 | 0.0 | 0.00 | 0.00 | 0.00 | 84 | 1013.9 |
| 20260502040008 | 53 | 207 | 0.0 | 0.0 | 0.00 | 0.00 | 0.00 | 84 | 1014.0 |
| 20260502035503 | 53 | 207 | 0.0 | 0.0 | 0.00 | 0.00 | 0.00 | 83 | 1014.0 |
| 20260502035003 | 53 | 207 | 0.0 | 0.0 | 0.00 | 0.00 | 0.00 | 83 | 1014.0 |
| 20260502034503 | 53 | 207 | 0.0 | 0.0 | 0.00 | 0.00 | 0.00 | 83 | 1014.1 |
| 20260502034002 | 53 | 207 | 0.0 | 0.0 | 0.00 | 0.00 | 0.00 | 83 | 1014.0 |
| 20260502033502 | 53 | 207 | 0.0 | 0.0 | 0.00 | 0.00 | 0.00 | 83 | 1014.1 |
| 20260502033007 | 53 | 207 | 0.0 | 0.0 | 0.00 | 0.00 | 0.00 | 82 | 1014.1 |
| 20260502032502 | 53 | 207 | 0.0 | 0.0 | 0.00 | 0.00 | 0.00 | 82 | 1014.1 |
| 20260502032002 | 53 | 207 | 0.0 | 0.0 | 0.00 | 0.00 | 0.00 | 82 | 1014.2 |
| 20260502031502 | 53 | 207 | 0.0 | 0.0 | 0.00 | 0.00 | 0.00 | 82 | 1014.3 |
| 20260502031002 | 53 | 207 | 0.0 | 0.0 | 0.00 | 0.00 | 0.00 | 81 | 1014.3 |
| 20260502030503 | 53 | 207 | 0.0 | 0.0 | 0.00 | 0.00 | 0.00 | 81 | 1014.4 |
| 20260502030002 | 54 | 207 | 0.0 | 0.0 | 0.00 | 0.00 | 0.00 | 81 | 1014.4 |
| 20260502025601 | 54 | 207 | 0.0 | 0.0 | 0.00 | 0.00 | 0.00 | 80 | 1014.5 |
| 20260502025102 | 54 | 207 | 0.0 | 0.0 | 0.00 | 0.00 | 0.00 | 80 | 1014.6 |
| 20260502024559 | 54 | 207 | 0.0 | 0.0 | 0.00 | 0.00 | 0.00 | 79 | 1014.7 |
| 20260502024059 | 54 | 207 | 0.0 | 0.0 | 0.00 | 0.00 | 0.00 | 78 | 1014.7 |
| 20260502023559 | 54 | 207 | 0.0 | 0.0 | 0.00 | 0.00 | 0.00 | 78 | 1014.8 |
| 20260502023102 | 54 | 207 | 0.0 | 0.0 | 0.00 | 0.00 | 0.00 | 78 | 1014.6 |
| 20260502022558 | 54 | 207 | 0.0 | 0.0 | 0.00 | 0.00 | 0.00 | 78 | 1014.5 |
| 20260502022058 | 54 | 207 | 0.0 | 0.0 | 0.00 | 0.00 | 0.00 | 78 | 1014.4 |
| 20260502021559 | 54 | 207 | 0.0 | 0.0 | 0.00 | 0.00 | 0.00 | 78 | 1014.3 |
| 20260502021103 | 54 | 207 | 0.0 | 0.0 | 0.00 | 0.00 | 0.00 | 77 | 1014.2 |
| 20260502020601 | 55 | 207 | 0.0 | 0.0 | 0.00 | 0.00 | 0.00 | 76 | 1014.4 |
| 20260502020058 | 55 | 207 | 0.0 | 0.0 | 0.00 | 0.00 | 0.00 | 76 | 1014.2 |
| 20260502015557 | 55 | 207 | 0.0 | 0.0 | 0.00 | 0.00 | 0.00 | 75 | 1014.2 |
| 20260502015057 | 55 | 207 | 0.0 | 0.0 | 0.00 | 0.00 | 0.00 | 74 | 1014.1 |
| 20260502014556 | 55 | 207 | 0.0 | 0.0 | 0.00 | 0.00 | 0.00 | 73 | 1014.1 |
| 20260502014056 | 55 | 207 | 0.0 | 0.0 | 0.00 | 0.00 | 0.00 | 72 | 1014.0 |
| 20260502013556 | 56 | 207 | 0.0 | 0.0 | 0.00 | 0.00 | 0.00 | 72 | 1013.9 |
| 20260502013059 | 56 | 207 | 0.0 | 0.0 | 0.00 | 0.00 | 0.00 | 72 | 1013.8 |
| 20260502012556 | 56 | 207 | 0.0 | 0.0 | 0.00 | 0.00 | 0.00 | 72 | 1013.8 |
| 20260502012056 | 56 | 207 | 0.0 | 0.0 | 0.00 | 0.00 | 0.00 | 71 | 1013.9 |
| 20260502011558 | 57 | 207 | 0.0 | 0.0 | 0.00 | 0.00 | 0.00 | 68 | 1014.0 |
| 20260502011055 | 57 | 207 | 0.0 | 0.0 | 0.00 | 0.00 | 0.00 | 68 | 1013.9 |
| 20260502010557 | 57 | 207 | 0.0 | 0.0 | 0.00 | 0.00 | 0.00 | 67 | 1013.8 |
| 20260502010058 | 58 | 207 | 0.0 | 0.0 | 0.00 | 0.00 | 0.00 | 67 | 1013.8 |
| 20260502005554 | 58 | 207 | 0.0 | 0.0 | 0.00 | 0.00 | 0.00 | 67 | 1013.7 |
| 20260502005057 | 58 | 207 | 0.0 | 0.0 | 0.00 | 0.00 | 0.00 | 66 | 1013.7 |
| 20260502004655 | 58 | 213 | 0.0 | 0.0 | 0.00 | 0.00 | 0.00 | 67 | 1013.7 |
| 20260502004054 | 58 | 213 | 0.0 | 0.0 | 0.00 | 0.00 | 0.00 | 66 | 1013.5 |
| 20260502003555 | 59 | 213 | 0.0 | 0.0 | 0.00 | 0.00 | 0.00 | 65 | 1013.6 |
| 20260502003056 | 59 | 203 | 0.0 | 0.0 | 0.00 | 0.00 | 0.00 | 64 | 1013.4 |
| 20260502002553 | 59 | 203 | 0.0 | 0.0 | 0.00 | 0.00 | 0.00 | 64 | 1013.4 |
| 20260502002053 | 59 | 200 | 0.0 | 1.0 | 0.00 | 0.00 | 0.00 | 64 | 1013.2 |
| 20260502001553 | 59 | 134 | 0.0 | 1.0 | 0.00 | 0.00 | 0.00 | 63 | 1013.2 |
| 20260502001053 | 60 | 215 | 0.0 | 2.0 | 0.00 | 0.00 | 0.00 | 62 | 1013.0 |
| 20260502000552 | 60 | 205 | 0.0 | 3.0 | 0.00 | 0.00 | 0.00 | 62 | 1012.7 |
| 20260502000053 | 60 | 205 | 0.0 | 3.0 | 0.00 | 0.00 | 0.00 | 62 | 1012.6 |
| 20260501235551 | 61 | 227 | 0.0 | 3.0 | 0.00 | 0.00 | 0.00 | 61 | 1012.7 |
| 20260501235052 | 61 | 227 | 1.0 | 3.0 | 0.00 | 0.00 | 0.00 | 60 | 1012.7 |
| 20260501234554 | 61 | 240 | 0.0 | 3.0 | 0.00 | 0.00 | 0.00 | 60 | 1012.7 |
| 20260501234051 | 61 | 241 | 0.0 | 3.0 | 0.00 | 0.00 | 0.00 | 60 | 1012.7 |
| 20260501233551 | 61 | 228 | 0.0 | 2.0 | 0.00 | 0.00 | 0.00 | 59 | 1012.5 |
| 20260501233056 | 62 | 257 | 0.0 | 3.0 | 0.00 | 0.00 | 0.00 | 59 | 1012.3 |
| 20260501232550 | 62 | 46 | 0.0 | 3.0 | 0.00 | 0.00 | 0.00 | 59 | 1012.3 |
| 20260501232050 | 62 | 234 | 0.0 | 3.0 | 0.00 | 0.00 | 0.00 | 57 | 1012.3 |
| 20260501231550 | 62 | 208 | 0.0 | 3.0 | 0.00 | 0.00 | 0.00 | 58 | 1012.4 |
| 20260501231049 | 63 | 238 | 0.0 | 4.0 | 0.00 | 0.00 | 0.00 | 56 | 1012.4 |
| 20260501230548 | 63 | 227 | 0.0 | 4.0 | 0.00 | 0.00 | 0.00 | 56 | 1012.5 |
| 20260501230049 | 63 | 227 | 0.0 | 6.0 | 0.00 | 0.00 | 0.00 | 55 | 1012.5 |
| 20260501225548 | 64 | 142 | 1.0 | 6.0 | 0.00 | 0.00 | 0.00 | 54 | 1012.7 |
| 20260501225047 | 64 | 192 | 2.0 | 5.0 | 0.00 | 0.00 | 0.00 | 54 | 1012.8 |
| 20260501224550 | 64 | 204 | 2.0 | 5.0 | 0.00 | 0.00 | 0.00 | 53 | 1012.7 |
| 20260501224047 | 64 | 205 | 1.0 | 4.0 | 0.00 | 0.00 | 0.00 | 53 | 1012.6 |
| 20260501223548 | 64 | 206 | 0.0 | 4.0 | 0.00 | 0.00 | 0.00 | 55 | 1012.8 |
| 20260501223056 | 64 | 207 | 1.0 | 5.0 | 0.00 | 0.00 | 0.00 | 52 | 1012.7 |
| 20260501222550 | 65 | 208 | 1.0 | 3.0 | 0.00 | 0.00 | 0.00 | 54 | 1012.7 |
| 20260501222047 | 65 | 208 | 0.0 | 6.0 | 0.00 | 0.00 | 0.00 | 52 | 1012.7 |
| 20260501221547 | 65 | 184 | 2.0 | 6.0 | 0.00 | 0.00 | 0.00 | 51 | 1012.6 |
| 20260501221048 | 66 | 244 | 0.0 | 4.0 | 0.00 | 0.00 | 0.00 | 53 | 1012.5 |
| 20260501220546 | 65 | 248 | 1.0 | 4.0 | 0.00 | 0.00 | 0.00 | 53 | 1012.6 |
| 20260501220046 | 65 | 228 | 0.0 | 4.0 | 0.00 | 0.00 | 0.00 | 53 | 1012.5 |
| 20260501215548 | 66 | 259 | 1.0 | 4.0 | 0.00 | 0.00 | 0.00 | 51 | 1012.6 |
| 20260501215048 | 65 | 140 | 1.0 | 4.0 | 0.00 | 0.00 | 0.00 | 51 | 1012.6 |
| 20260501214545 | 65 | 104 | 1.0 | 5.0 | 0.00 | 0.00 | 0.00 | 53 | 1012.6 |
| 20260501214042 | 65 | 261 | 1.0 | 5.0 | 0.00 | 0.00 | 0.00 | 52 | 1012.7 |
| 20260501213542 | 65 | 188 | 0.0 | 4.0 | 0.00 | 0.00 | 0.00 | 53 | 1012.8 |
| 20260501213042 | 65 | 85 | 2.0 | 5.0 | 0.00 | 0.00 | 0.00 | 51 | 1012.9 |
| 20260501212542 | 65 | 275 | 2.0 | 6.0 | 0.00 | 0.00 | 0.00 | 51 | 1012.8 |
| 20260501212042 | 65 | 205 | 2.0 | 6.0 | 0.00 | 0.00 | 0.00 | 50 | 1012.7 |
| 20260501211553 | 65 | 126 | 0.0 | 3.0 | 0.00 | 0.00 | 0.00 | 52 | 1012.8 |
| 20260501211041 | 65 | 176 | 0.0 | 4.0 | 0.00 | 0.00 | 0.00 | 52 | 1012.8 |
| 20260501210545 | 65 | 57 | 0.0 | 5.0 | 0.00 | 0.00 | 0.00 | 52 | 1012.8 |
| 20260501210043 | 65 | 113 | 2.0 | 5.0 | 0.00 | 0.00 | 0.00 | 50 | 1012.9 |
| 20260501205541 | 65 | 108 | 1.0 | 5.0 | 0.00 | 0.00 | 0.00 | 52 | 1013.0 |
| 20260501205044 | 65 | 138 | 1.0 | 8.0 | 0.00 | 0.00 | 0.00 | 50 | 1012.9 |
| 20260501204641 | 65 | 90 | 3.0 | 8.0 | 0.00 | 0.00 | 0.00 | 51 | 1013.0 |
| 20260501204041 | 66 | 151 | 2.0 | 9.0 | 0.00 | 0.00 | 0.00 | 48 | 1012.8 |
| 20260501203539 | 66 | 144 | 1.0 | 9.0 | 0.00 | 0.00 | 0.00 | 49 | 1012.9 |
| 20260501203049 | 66 | 191 | 2.0 | 12.0 | 0.00 | 0.00 | 0.00 | 49 | 1013.0 |
| 20260501202539 | 66 | 103 | 5.0 | 12.0 | 0.00 | 0.00 | 0.00 | 48 | 1012.9 |
| 20260501202039 | 67 | 250 | 2.0 | 7.0 | 0.00 | 0.00 | 0.00 | 48 | 1012.9 |
| 20260501201538 | 67 | 229 | 2.0 | 7.0 | 0.00 | 0.00 | 0.00 | 45 | 1013.0 |
| 20260501201040 | 67 | 155 | 1.0 | 6.0 | 0.00 | 0.00 | 0.00 | 47 | 1013.0 |
| 20260501200536 | 67 | 92 | 2.0 | 7.0 | 0.00 | 0.00 | 0.00 | 48 | 1013.1 |
| 20260501200038 | 66 | 69 | 3.0 | 8.0 | 0.00 | 0.00 | 0.00 | 46 | 1013.2 |
| 20260501195534 | 66 | 115 | 2.0 | 9.0 | 0.00 | 0.00 | 0.00 | 45 | 1013.4 |
| 20260501195035 | 67 | 230 | 2.0 | 5.0 | 0.00 | 0.00 | 0.00 | 45 | 1013.4 |
| 20260501194534 | 68 | 163 | 2.0 | 8.0 | 0.00 | 0.00 | 0.00 | 44 | 1013.5 |
| 20260501194033 | 67 | 95 | 2.0 | 8.0 | 0.00 | 0.00 | 0.00 | 44 | 1013.5 |
| 20260501193535 | 67 | 115 | 4.0 | 8.0 | 0.00 | 0.00 | 0.00 | 43 | 1013.6 |
| 20260501193030 | 67 | 252 | 1.0 | 5.0 | 0.00 | 0.00 | 0.00 | 45 | 1013.7 |
| 20260501192530 | 67 | 98 | 1.0 | 7.0 | 0.00 | 0.00 | 0.00 | 46 | 1013.8 |
| 20260501192031 | 67 | 196 | 1.0 | 7.0 | 0.00 | 0.00 | 0.00 | 44 | 1014.0 |
| 20260501191530 | 67 | 200 | 2.0 | 8.0 | 0.00 | 0.00 | 0.00 | 47 | 1013.9 |
| 20260501191030 | 67 | 84 | 1.0 | 4.0 | 0.00 | 0.00 | 0.00 | 44 | 1014.1 |
| 20260501190527 | 67 | 259 | 0.0 | 7.0 | 0.00 | 0.00 | 0.00 | 44 | 1014.3 |
| 20260501190029 | 67 | 117 | 1.0 | 7.0 | 0.00 | 0.00 | 0.00 | 43 | 1014.4 |
| 20260501185526 | 67 | 355 | 0.0 | 8.0 | 0.00 | 0.00 | 0.00 | 47 | 1014.3 |
| 20260501185027 | 65 | 122 | 1.0 | 8.0 | 0.00 | 0.00 | 0.00 | 42 | 1014.5 |
| 20260501184525 | 66 | 173 | 0.0 | 6.0 | 0.00 | 0.00 | 0.00 | 45 | 1014.6 |
| 20260501184025 | 65 | 93 | 1.0 | 6.0 | 0.00 | 0.00 | 0.00 | 41 | 1014.5 |
| 20260501183526 | 66 | 204 | 2.0 | 6.0 | 0.00 | 0.00 | 0.00 | 44 | 1014.6 |
| 20260501183023 | 65 | 271 | 0.0 | 7.0 | 0.00 | 0.00 | 0.00 | 46 | 1014.7 |
| 20260501182524 | 65 | 49 | 2.0 | 7.0 | 0.00 | 0.00 | 0.00 | 43 | 1014.8 |
| 20260501182023 | 65 | 133 | 1.0 | 6.0 | 0.00 | 0.00 | 0.00 | 48 | 1014.9 |
| 20260501181522 | 64 | 306 | 2.0 | 6.0 | 0.00 | 0.00 | 0.00 | 43 | 1014.9 |
| 20260501181022 | 64 | 234 | 1.0 | 7.0 | 0.00 | 0.00 | 0.00 | 48 | 1015.1 |